Wind_Speed
79 79 79 79 79 78 77 76 74 73 71 69 67 65 63 63 65 67 69 70 71 71 70 69 69 68 67 67 67 66 65 64 63 61 58 53 53 53 53 53 51 51 52 51 50 48 47 45 43 42 41 39 38 36 34 32 31 29 27 25 22 21 22 23 24 23 22 22 22 22 22 21 20 19 19 19 19 19 17 16 15 14 14 13 13 12 11 11
79 79 79 79 79 79 79 78 76 75 73 71 69 67 65 64 64 65 67 70 71 71 71 70 70 69 68 68 68 68 68 66 65 63 58 54 55 54 54 54 52 51 52 52 51 49 49 47 46 45 43 42 40 38 36 35 33 31 29 26 23 22 24 25 25 23 23 23 23 23 23 23 22 20 19 19 20 20 20 18 17 16 15 14 14 13 12 12
79 79 79 79 79 80 80 79 78 77 75 73 72 69 67 65 64 64 66 68 70 71 72 71 70 70 69 69 69 69 69 68 68 64 58 56 56 55 54 54 54 52 52 52 51 51 50 49 48 47 46 44 42 41 39 37 35 33 31 28 25 25 26 27 26 25 24 24 24 24 24 24 23 22 21 20 19 20 21 21 19 18 17 16 15 14 13 13
78 80 80 79 79 80 80 80 80 78 77 75 73 72 69 68 66 65 65 66 68 71 72 72 72 71 70 69 69 70 70 70 69 63 58 59 58 56 55 54 55 54 53 53 52 52 51 50 50 49 48 47 45 44 42 39 37 35 32 29 27 27 27 28 27 26 25 25 25 25 25 25 24 24 23 22 20 21 22 22 21 20 19 17 16 15 14 14
77 79 80 80 78 79 80 80 81 79 78 77 75 74 72 70 68 66 66 66 67 69 71 73 72 72 71 70 70 70 71 71 70 63 60 61 60 58 57 55 55 55 54 55 54 52 52 52 51 50 50 48 46 45 44 41 39 37 34 31 30 30 30 29 29 28 27 26 25 25 25 25 24 24 25 23 23 23 22 21 22 22 21 19 18 17 16 15
72 77 80 81 79 78 79 80 80 80 79 78 77 75 74 72 70 68 67 66 67 68 70 72 73 73 72 71 71 71 72 73 71 64 62 63 61 59 59 57 56 55 56 56 56 54 53 52 51 51 50 49 48 46 45 43 42 39 36 34 33 32 32 31 31 29 28 27 25 25 24 24 24 25 25 24 25 26 22 21 23 23 23 22 21 20 19 18
67 73 77 80 81 78 79 80 80 80 80 79 78 77 75 74 72 70 69 68 67 67 68 70 73 74 73 73 72 73 73 73 71 65 63 64 62 61 61 60 58 57 57 57 57 56 54 52 51 50 50 50 49 47 46 45 44 42 39 37 35 35 35 34 34 32 30 29 27 25 24 24 24 24 24 24 27 27 24 23 23 23 24 24 24 23 22 20
63 68 74 77 81 80 78 79 79 80 80 79 79 78 77 75 74 72 70 69 68 68 68 69 71 73 74 74 73 74 75 73 71 67 64 64 64 63 63 62 59 58 57 57 56 56 55 53 51 50 50 50 48 48 47 47 47 45 41 39 38 38 37 37 36 35 33 31 29 28 26 25 24 24 23 24 27 27 26 26 24 24 24 25 26 26 25 23
62 63 71 75 78 80 78 78 79 79 79 79 79 78 77 77 75 74 72 71 70 69 69 69 70 72 73 74 74 75 75 73 71 68 65 65 65 64 64 63 61 59 58 58 56 56 56 55 53 51 50 48 47 49 49 49 49 46 43 41 41 41 40 40 39 38 36 34 32 30 29 27 25 24 22 24 27 27 27 27 27 26 26 26 27 27 27 26
64 59 66 72 75 76 76 76 78 78 79 79 78 78 77 77 76 75 74 73 72 71 70 69 69 70 72 74 76 75 74 72 71 70 67 66 66 65 65 65 64 62 60 59 58 57 55 54 53 52 51 50 49 50 50 51 50 46 45 45 45 44 44 43 41 41 39 37 36 33 32 30 28 25 22 23 27 27 27 28 29 29 28 28 28 28 28 27
70 62 61 68 72 73 73 74 75 77 78 78 78 78 77 76 76 76 75 74 73 72 71 70 70 70 71 73 75 74 73 71 71 71 68 67 67 66 67 66 66 64 62 61 60 58 56 54 54 54 55 53 52 51 51 51 50 48 48 48 48 47 47 45 44 43 41 40 38 36 35 33 31 26 22 25 28 27 27 28 29 30 30 30 29 29 28 28
72 68 62 65 69 69 70 72 73 74 76 78 78 77 77 76 76 76 75 75 74 74 73 72 71 70 71 73 73 71 71 71 72 72 70 68 68 68 67 67 66 65 64 63 61 60 58 56 55 56 57 56 53 53 52 51 50 50 50 50 49 49 49 47 45 45 44 43 40 39 39 36 32 26 24 28 30 28 28 27 28 29 31 32 31 31 30 30
70 71 64 63 66 66 66 68 70 72 73 75 77 77 77 76 75 75 75 75 74 74 74 74 72 71 71 72 70 69 70 71 73 73 70 69 68 68 68 67 66 66 65 64 63 61 60 59 58 57 58 57 55 55 54 52 51 51 51 52 50 50 50 48 46 46 45 44 41 43 42 37 33 28 28 31 31 30 29 28 28 29 30 32 32 32 31 32
68 70 65 62 65 65 63 64 66 69 70 72 75 76 76 76 75 75 75 74 74 74 75 75 74 74 72 70 68 68 69 71 74 73 71 69 69 69 68 68 67 66 66 65 65 64 62 62 61 60 60 59 57 56 56 54 53 52 52 52 51 52 51 47 46 46 46 45 43 45 45 38 34 31 30 33 32 32 31 30 30 30 30 31 31 32 32 33
67 69 68 63 65 64 60 61 64 66 68 70 72 74 75 76 75 74 74 74 74 74 75 75 75 75 73 69 68 68 68 71 73 72 71 70 69 70 69 68 68 67 67 66 66 65 64 64 63 63 62 61 59 57 57 56 55 54 53 53 52 52 50 46 46 47 47 46 45 47 46 39 35 33 34 35 34 34 33 32 33 32 32 32 32 32 32 33
67 68 69 65 64 64 57 55 60 63 66 68 70 73 74 74 75 74 74 74 74 74 74 75 76 75 74 70 68 67 68 70 70 69 71 70 69 70 70 69 69 69 68 67 67 67 67 66 65 65 63 62 61 59 58 58 56 56 55 54 53 51 49 47 47 48 47 47 47 49 46 40 35 35 37 36 35 35 35 34 35 35 35 34 33 32 32 33
70 68 69 67 64 65 57 50 55 61 63 66 68 70 73 74 74 75 74 74 74 74 73 74 75 76 75 72 69 67 66 67 68 67 68 70 70 70 71 70 69 69 69 69 69 69 69 69 68 67 66 64 63 61 61 60 59 57 56 55 53 49 48 49 48 48 48 48 48 48 46 41 38 37 38 38 37 37 36 36 36 37 36 36 34 33 33 33
72 69 69 67 64 66 61 49 50 57 61 65 67 69 71 72 74 75 75 75 75 75 75 75 75 77 75 71 68 66 64 65 65 65 65 68 69 70 70 69 70 71 71 71 71 71 71 72 71 70 70 68 66 65 64 62 59 56 54 53 51 49 50 50 48 46 46 47 47 48 47 44 41 39 39 40 39 38 37 36 37 38 37 36 35 35 34 34
74 71 69 66 63 66 65 53 46 52 58 63 66 68 70 71 73 74 75 76 76 76 76 75 75 75 72 68 67 65 64 65 65 65 65 65 67 69 70 70 71 72 73 73 72 72 73 73 74 74 73 71 68 65 63 61 56 53 52 51 51 52 53 52 48 45 45 46 48 49 48 46 44 42 40 40 41 39 36 36 37 37 37 36 36 35 35 35
76 73 70 67 65 65 67 58 47 48 56 62 66 68 70 72 73 75 76 76 75 74 74 73 72 72 71 68 67 66 66 67 68 66 64 65 66 67 70 71 71 73 74 74 73 73 74 75 76 75 73 70 67 63 62 61 56 53 53 54 55 56 55 52 49 47 45 47 49 49 49 49 47 44 41 40 42 40 36 34 35 36 37 37 36 35 35 35
78 75 71 68 67 66 67 62 51 47 54 60 64 67 68 69 70 72 73 73 73 73 73 72 71 72 71 69 68 68 68 69 69 66 63 64 64 64 67 70 72 73 73 73 74 75 75 77 76 72 70 68 66 62 61 61 57 55 57 58 58 56 55 53 50 48 48 50 51 51 51 50 48 44 41 41 42 39 35 33 33 34 36 36 35 34 33 33
79 77 73 68 68 68 67 65 54 48 53 58 62 64 63 64 65 65 66 67 70 71 72 73 72 72 71 69 69 69 69 69 69 67 63 63 63 63 64 66 69 72 72 73 76 77 78 77 73 69 69 68 67 65 63 62 61 60 61 62 61 58 56 54 52 50 50 52 53 52 53 52 49 45 42 42 41 37 35 34 33 33 34 34 33 32 31 31
79 79 74 67 67 68 67 66 57 51 54 56 56 57 58 61 63 62 63 65 66 68 69 70 70 70 70 69 69 70 70 70 70 68 64 63 63 63 63 63 65 68 71 74 75 76 77 73 70 69 69 68 68 68 66 66 66 66 66 65 64 61 58 55 53 52 51 53 54 53 55 55 52 48 43 41 40 36 35 35 34 33 32 31 31 31 31 30
77 79 78 68 66 68 67 66 60 55 55 53 52 52 54 59 62 62 63 65 67 68 67 67 67 69 69 68 69 70 70 70 70 67 65 64 62 62 64 64 64 64 67 71 72 73 71 68 68 69 68 68 69 70 70 70 69 69 69 67 64 62 59 56 55 53 52 54 55 54 57 57 53 50 45 41 41 38 36 37 35 33 31 30 30 29 29 29
73 77 79 71 65 68 67 64 60 57 54 52 52 52 52 57 60 61 62 64 67 67 68 69 69 70 69 68 68 68 69 69 69 67 65 64 61 61 62 63 65 64 63 66 69 70 68 67 68 67 67 69 70 72 72 72 71 70 70 67 64 62 59 58 57 55 55 55 56 56 60 60 55 52 47 43 44 40 37 37 35 33 33 31 29 28 27 28
72 74 77 71 65 67 68 64 60 57 54 51 52 51 51 54 59 61 62 63 66 67 68 69 69 70 71 70 69 68 68 68 68 67 64 63 62 61 60 61 65 66 62 60 64 67 68 67 67 67 70 71 71 73 72 71 70 70 69 67 64 63 61 60 59 58 58 58 58 59 61 63 59 53 49 45 45 42 39 37 35 34 34 31 29 28 28 29
70 73 76 72 66 69 71 66 61 57 54 50 50 52 51 52 56 61 62 63 66 65 65 67 68 69 69 70 70 69 69 68 67 68 66 64 63 62 62 61 62 64 62 60 62 64 65 66 66 67 70 71 72 73 71 69 69 69 70 68 65 64 64 64 62 61 60 60 61 61 62 66 64 55 49 46 46 45 42 39 37 36 35 33 31 29 30 31
68 72 76 71 66 71 73 68 62 55 49 46 48 52 54 53 55 59 62 65 66 64 63 65 66 66 67 68 70 69 68 65 64 66 66 64 63 63 63 62 61 60 61 63 63 62 60 62 64 64 68 72 72 71 70 69 68 69 70 69 65 65 66 65 64 63 62 63 64 62 61 67 68 58 50 47 47 47 45 41 39 38 36 35 34 32 32 32
65 73 76 68 65 72 73 67 61 54 48 48 50 52 53 53 55 59 63 65 64 62 63 63 64 66 67 67 69 69 69 66 63 62 62 62 63 63 62 60 60 60 60 61 60 59 60 59 60 62 65 68 68 70 71 68 67 69 69 67 65 66 66 66 66 64 64 67 67 62 60 66 71 64 55 51 50 48 47 44 41 40 39 37 35 32 32 33
63 72 74 66 66 75 74 66 62 57 51 50 52 52 51 53 56 61 66 65 60 59 61 62 63 65 66 67 68 69 69 69 66 62 62 62 61 62 61 59 59 60 60 59 56 56 58 58 60 63 64 63 64 67 70 69 69 69 68 67 67 67 67 67 68 65 67 71 68 61 58 64 72 71 62 56 53 50 50 48 44 41 40 37 35 32 32 33
61 70 74 68 69 76 74 68 63 58 54 52 53 53 54 54 56 63 66 60 57 58 59 61 63 64 64 65 67 68 68 69 67 64 64 62 60 61 62 61 61 59 59 59 58 58 59 59 59 60 61 62 62 64 67 70 72 72 70 69 68 68 68 69 69 69 71 74 70 63 61 65 74 76 68 61 56 53 53 52 46 42 40 37 34 32 33 34
60 69 74 67 69 73 71 67 61 56 56 55 54 53 56 57 58 62 59 52 56 61 58 57 60 62 63 63 64 65 66 67 67 66 65 63 61 62 63 63 63 62 61 61 60 61 63 62 59 57 58 60 62 63 64 67 72 75 73 72 71 71 71 71 73 74 75 74 72 69 67 70 76 77 72 66 61 58 56 54 50 44 41 39 36 34 34 34
59 71 73 65 69 72 67 63 60 57 58 59 56 54 56 59 60 58 53 50 56 58 56 55 55 56 61 63 64 64 65 65 65 64 64 64 63 62 61 61 62 63 63 61 60 62 64 64 63 61 60 60 62 65 65 65 68 72 74 74 74 74 74 75 76 77 77 75 75 74 73 76 77 76 75 71 65 63 60 57 53 47 43 40 39 37 36 35
60 73 72 64 69 72 65 61 59 60 61 61 59 58 58 59 57 52 49 52 54 52 53 55 55 55 59 61 62 63 64 66 65 62 62 64 65 64 62 61 61 62 62 61 61 62 63 65 67 66 64 63 62 64 64 62 60 62 65 70 74 75 75 76 76 77 76 74 74 75 75 78 77 75 76 75 70 67 64 60 55 50 46 42 41 39 39 39
66 75 70 64 71 73 66 59 58 60 62 62 61 62 62 59 55 51 49 49 51 50 49 50 54 57 58 58 60 62 62 64 64 64 63 64 64 65 64 63 61 60 61 62 62 62 62 63 64 65 67 66 63 61 61 62 60 57 55 59 69 73 74 75 75 75 72 71 73 74 75 77 75 74 75 75 73 69 66 63 59 56 52 47 44 42 41 41
71 74 66 65 71 74 68 60 58 62 63 63 63 62 60 55 53 53 49 47 47 47 46 48 52 56 57 58 59 61 63 63 62 62 64 64 63 63 62 63 62 60 61 62 61 61 63 62 60 63 68 68 66 63 63 65 64 61 58 56 57 62 68 73 77 76 73 74 77 77 77 77 75 76 77 76 76 73 69 66 64 61 57 53 50 47 45 43
75 70 63 64 68 72 68 58 59 63 64 65 64 58 52 48 48 48 46 46 46 45 47 49 51 53 55 57 58 59 61 63 63 63 63 63 64 63 62 61 60 59 58 58 59 60 61 61 60 62 66 66 64 62 62 63 62 63 65 58 52 56 60 65 70 74 77 79 80 80 80 79 78 80 79 76 75 74 71 68 66 64 61 57 54 51 49 47
73 65 62 64 67 70 66 58 60 64 65 66 62 55 49 46 44 42 42 44 45 46 49 49 49 49 50 53 55 57 59 61 62 64 64 64 65 64 63 61 60 59 56 56 58 58 58 59 60 61 63 64 65 64 63 63 63 64 65 60 59 62 61 61 63 67 72 76 78 79 82 83 83 82 80 77 74 72 71 68 66 65 62 60 57 54 52 50
68 60 62 65 66 69 65 60 62 65 67 66 60 54 50 45 42 40 41 42 44 47 49 48 48 48 48 49 49 52 56 58 60 61 63 65 65 63 62 61 59 58 57 57 59 58 56 57 59 61 61 64 67 69 69 69 68 67 65 64 65 64 62 62 63 62 64 68 71 75 79 82 84 81 79 78 75 73 73 70 67 66 64 62 60 58 55 53
63 55 60 65 66 67 62 59 63 66 66 62 56 52 49 46 44 42 41 43 44 47 47 47 46 46 47 48 47 48 50 53 56 58 60 62 62 62 61 61 59 58 57 57 58 58 58 59 60 60 61 64 68 69 69 68 68 68 67 67 68 67 66 66 66 64 63 63 65 70 76 81 82 80 79 77 75 75 75 73 70 67 66 65 64 63 60 57
59 52 59 64 67 65 60 61 67 67 64 58 52 50 48 47 46 44 43 44 44 46 46 46 46 46 46 47 48 49 48 48 51 55 58 59 60 60 60 59 59 59 58 59 59 59 60 61 60 60 62 65 67 68 67 65 64 64 65 64 64 66 68 70 72 71 68 66 66 67 74 78 77 76 76 74 73 73 72 71 70 67 66 66 65 65 64 62
56 52 59 65 68 65 61 64 66 63 60 57 53 50 47 46 45 44 45 44 45 46 46 47 47 46 46 46 46 48 49 48 49 51 53 55 57 57 56 56 57 59 59 60 59 59 60 61 62 64 65 65 65 67 68 67 64 62 62 60 58 60 63 66 69 70 69 68 66 66 70 74 73 72 71 70 69 68 68 68 67 67 68 67 65 64 65 66
56 55 58 63 66 63 60 63 64 61 58 54 50 48 46 45 45 44 44 44 44 45 47 48 48 47 46 46 45 47 48 48 48 49 50 50 52 53 53 55 56 58 60 61 60 59 61 63 64 65 65 66 66 66 68 68 64 62 62 60 58 59 61 61 61 62 64 66 64 65 69 72 72 70 67 66 65 65 67 67 68 69 69 68 66 65 64 66
57 60 61 61 62 63 63 63 61 57 54 49 46 46 45 44 44 43 43 43 43 44 46 48 48 47 47 46 45 46 47 47 48 48 47 48 50 51 52 54 56 57 59 60 60 60 61 63 65 65 67 69 71 72 72 70 62 55 56 59 59 60 60 59 59 60 64 65 62 64 66 67 68 67 65 64 64 64 66 67 68 69 67 66 65 64 62 61
56 62 63 60 60 63 63 60 54 50 48 47 46 44 44 44 43 43 43 43 42 43 45 47 48 48 47 47 46 46 46 47 47 47 46 46 47 49 50 51 53 56 57 57 59 60 61 63 65 68 71 72 73 73 72 72 65 55 52 54 56 57 59 61 61 61 64 63 62 64 65 62 62 64 64 66 66 65 65 64 63 63 62 61 61 62 62 60
56 62 62 61 63 63 60 57 53 51 48 46 46 45 44 44 43 43 43 44 43 42 43 45 47 49 49 48 48 48 48 49 49 48 47 45 43 44 47 49 50 52 54 56 58 60 61 64 66 69 72 71 70 70 68 71 74 65 55 55 56 55 56 61 64 67 69 68 68 69 66 63 62 62 62 65 67 67 66 63 61 60 60 59 59 59 60 60
57 62 62 63 65 63 60 58 55 51 47 44 44 43 43 43 42 43 44 44 43 43 43 44 46 48 49 49 48 48 49 51 52 50 48 46 44 42 43 45 47 48 49 52 55 58 61 63 65 68 71 70 68 70 72 77 80 72 58 56 60 59 56 58 63 67 68 70 72 72 69 66 64 62 62 62 62 63 62 61 60 61 62 62 62 61 61 62
56 59 59 60 60 57 56 55 51 48 45 42 41 41 41 41 41 41 42 42 42 42 43 44 45 47 48 48 48 49 49 50 53 52 49 47 47 46 43 42 44 47 47 48 50 53 58 61 63 66 70 71 69 72 76 79 83 80 65 56 58 59 57 57 59 60 60 63 66 67 67 65 60 61 63 63 63 64 62 61 60 60 61 62 63 64 64 64
52 55 57 57 54 50 47 46 45 43 42 42 41 40 40 40 40 39 39 40 40 40 41 41 42 45 46 47 47 49 49 48 49 51 50 46 44 45 45 43 42 43 46 48 49 49 52 56 59 63 67 70 70 74 78 79 83 86 77 65 61 61 59 60 63 63 61 61 62 62 63 61 55 56 59 60 63 67 66 64 62 61 61 61 62 63 64 64
49 51 53 52 50 48 45 43 44 43 43 43 42 40 39 38 38 38 38 39 39 40 40 40 41 43 46 46 47 48 48 45 44 46 49 48 42 39 42 43 42 41 43 47 49 49 50 51 52 56 62 66 69 73 77 79 84 88 86 77 69 64 61 61 66 68 66 65 64 62 63 62 55 53 56 58 60 64 65 65 64 63 64 63 63 64 64 64
48 49 50 48 48 49 47 45 45 45 47 47 44 42 42 40 39 39 40 41 41 41 41 40 40 42 44 46 47 47 46 45 42 41 45 47 45 41 42 42 42 44 44 44 45 48 49 49 48 50 55 61 65 69 73 77 82 87 91 89 80 71 64 60 62 66 68 68 66 63 64 61 55 56 59 59 60 62 63 65 67 67 67 66 66 66 66 66
48 50 51 51 51 50 49 49 48 47 46 45 43 42 42 41 42 42 42 42 42 43 43 42 43 43 44 46 44 43 44 45 44 42 43 44 45 47 47 43 40 42 44 43 44 45 46 48 48 48 50 54 58 63 68 71 75 82 89 91 87 78 69 62 60 62 64 65 63 62 61 56 54 59 60 56 59 64 64 65 68 68 68 67 67 68 68 68
Wind_Direction
228 228 227 226 226 226 227 227 226 226 226 226 225 224 223 223 224 225 226 227 227 226 226 227 228 228 227 227 227 227 225 224 223 223 220 218 218 219 220 221 220 220 222 223 224 225 226 225 225 226 227 228 229 229 228 227 226 225 224 224 224 227 231 231 230 227 227 228 230 230 230 230 230 228 226 225 225 222 220 220 219 215 209 207 207 209 210 209
227 228 228 227 226 226 226 227 227 226 226 226 225 225 224 223 223 224 225 226 227 227 226 226 227 228 228 227 227 227 227 226 224 224 220 217 218 219 220 222 221 221 223 224 224 224 226 226 226 226 227 227 229 230 229 228 227 226 224 222 221 224 229 231 230 228 227 227 229 229 230 230 231 230 228 226 226 225 223 222 223 220 215 213 212 211 213 213
226 227 228 228 227 226 226 226 226 226 225 225 225 224 224 223 222 223 224 225 226 227 227 226 226 227 227 227 227 228 228 227 226 224 220 217 218 219 219 221 222 222 223 224 224 224 225 226 226 227 227 227 228 230 230 228 228 228 225 221 219 223 228 231 231 228 227 227 228 228 229 231 231 231 230 228 227 227 225 224 224 224 221 219 218 217 216 217
226 226 226 227 227 226 225 226 226 226 225 225 225 224 224 223 222 222 223 224 225 226 227 226 225 225 226 227 227 228 228 229 228 224 219 219 218 218 219 220 222 222 223 225 225 224 225 225 226 227 228 227 227 229 230 229 229 228 227 223 220 223 227 231 231 228 228 228 228 228 228 230 230 231 232 230 229 228 226 225 225 227 226 224 223 222 220 219
226 226 226 226 227 227 226 226 226 226 226 225 225 224 224 223 222 222 222 223 224 225 227 227 226 225 225 226 227 227 228 228 228 223 220 221 219 218 219 219 221 222 223 225 225 225 225 225 226 227 229 229 228 228 230 230 230 229 227 225 223 224 227 230 232 229 227 227 227 227 227 228 229 229 231 231 231 231 227 226 227 228 228 229 228 225 223 222
227 226 226 225 225 226 226 225 225 226 226 225 225 224 224 223 222 222 221 222 223 224 225 227 227 226 224 224 225 227 227 227 227 223 221 222 219 218 218 218 220 221 222 224 226 225 225 225 226 227 229 230 230 229 230 231 231 230 228 226 225 226 227 230 232 230 228 227 226 226 226 227 227 228 229 230 233 233 229 227 228 229 229 231 231 229 226 224
229 227 226 226 225 225 226 225 225 225 225 225 225 225 224 223 223 222 221 221 222 223 224 225 227 227 226 224 224 226 227 227 227 223 221 222 220 218 218 217 218 221 222 224 226 226 226 226 226 227 229 230 231 231 231 231 232 231 229 228 227 227 228 230 231 232 230 228 226 225 225 226 226 227 228 229 233 234 230 230 230 229 230 232 233 233 231 228
229 229 227 226 225 224 225 225 225 225 225 225 225 225 224 223 223 222 222 221 222 222 223 224 226 227 227 226 224 225 227 227 227 224 221 222 222 219 219 218 217 220 222 223 225 226 226 227 227 227 228 229 231 232 232 232 232 231 229 229 229 229 230 231 232 232 232 230 228 226 225 226 226 226 226 228 234 234 232 233 232 230 230 232 234 234 234 232
227 230 229 227 227 225 224 224 225 224 225 225 225 225 225 224 223 222 222 221 221 222 222 223 224 226 227 227 226 225 226 227 227 224 221 222 222 220 220 219 217 218 221 224 224 225 226 227 227 227 228 229 230 232 233 233 233 232 230 229 230 230 230 231 231 232 232 232 230 228 227 226 225 225 224 228 234 234 232 234 234 232 230 231 234 235 236 236
225 229 230 228 228 226 225 224 224 224 224 225 226 226 225 224 223 222 222 221 221 222 222 222 223 225 226 227 227 225 225 225 226 226 222 222 223 222 221 220 218 217 219 223 224 225 226 226 227 228 228 228 228 230 231 233 233 232 231 230 229 229 230 230 231 232 233 233 232 230 229 227 225 223 222 228 235 235 232 232 233 234 233 233 233 235 236 238
224 227 230 230 228 227 227 225 224 224 224 224 225 226 226 225 224 222 222 221 221 221 222 222 222 224 225 226 227 226 225 224 225 226 223 222 222 222 222 221 220 218 217 220 223 224 224 224 225 227 228 227 227 228 230 232 233 232 231 231 229 229 230 230 231 232 234 234 234 233 232 229 226 221 220 228 234 235 233 232 233 234 235 236 235 235 235 237
224 225 227 230 229 228 228 226 225 225 224 224 224 225 226 225 225 223 222 221 221 221 221 222 222 222 224 225 226 225 225 225 225 225 223 222 222 222 223 223 221 219 218 219 222 224 224 223 223 225 227 227 226 228 229 231 232 231 231 232 230 229 230 229 231 232 234 235 236 237 236 232 229 221 219 229 233 235 236 235 235 235 235 237 237 237 236 236
223 223 225 228 229 228 228 227 225 224 225 225 224 224 225 225 225 224 223 222 221 221 221 222 222 222 223 224 225 225 225 226 225 225 223 222 222 223 223 224 223 221 219 218 220 223 224 223 222 224 226 226 225 227 228 229 231 232 232 233 232 231 230 228 230 232 234 236 237 240 239 235 233 226 223 230 234 236 237 237 238 238 237 238 238 238 238 238
222 221 221 225 226 227 228 228 225 223 224 225 224 224 224 225 225 225 224 223 222 221 221 221 222 222 222 222 223 224 225 226 226 226 224 221 221 223 223 223 224 223 221 219 220 222 224 225 223 223 225 226 225 225 227 227 229 231 232 233 233 233 232 229 230 232 234 236 237 241 242 237 235 232 229 232 235 236 237 238 239 239 239 239 238 238 239 240
221 220 219 223 224 224 227 229 226 223 222 224 225 224 224 224 225 225 225 224 223 222 221 221 222 222 222 221 221 223 224 226 227 226 225 223 221 222 223 223 223 223 222 220 220 221 224 225 226 225 225 227 226 225 227 227 228 230 232 233 232 233 233 230 231 232 233 235 236 240 242 239 236 236 235 234 235 237 237 237 238 238 239 238 237 237 237 239
219 219 219 222 223 222 225 230 228 225 222 222 224 224 224 224 224 224 225 224 224 223 222 221 221 222 222 220 220 222 223 226 227 227 226 226 223 222 222 221 222 223 223 221 221 221 222 225 226 226 226 227 227 226 227 227 227 229 231 233 233 233 235 233 232 233 234 235 236 239 242 241 236 235 238 238 236 238 237 237 238 238 237 238 237 236 236 238
218 219 219 220 222 221 222 229 230 227 223 221 222 223 223 223 223 223 224 224 224 223 223 222 221 222 221 220 220 221 222 225 228 228 227 227 226 224 223 222 222 223 223 222 221 221 222 224 226 227 227 226 227 227 227 228 228 229 231 234 235 235 236 235 233 233 235 236 237 240 242 242 237 233 237 240 238 238 237 236 238 239 238 238 237 237 236 237
217 218 219 219 221 220 219 224 229 227 224 221 220 221 222 222 223 223 223 223 224 223 223 222 221 221 221 219 220 221 222 224 227 227 227 228 228 227 225 223 222 222 223 222 221 221 222 223 225 226 227 226 226 227 229 230 230 231 233 236 239 239 239 239 236 235 237 239 240 241 243 243 241 235 234 239 240 239 238 236 237 239 240 239 238 238 237 237
216 217 218 217 219 219 217 219 225 226 224 222 219 220 221 221 221 222 223 223 224 224 224 224 224 224 222 221 221 221 222 223 226 226 225 226 228 228 227 225 223 221 222 223 222 222 223 223 224 226 228 228 227 228 232 234 232 233 236 237 239 240 239 240 240 239 239 241 243 244 244 244 243 239 234 236 240 240 238 236 237 239 241 241 240 238 237 237
215 216 216 216 217 217 216 217 223 224 223 222 220 219 220 221 221 221 223 223 225 226 226 226 226 226 224 222 221 221 222 223 224 225 224 224 225 227 228 227 225 223 222 222 223 223 223 224 225 227 230 231 231 230 232 235 234 234 236 235 236 238 239 240 240 240 240 241 243 244 245 243 242 241 237 236 239 240 239 237 237 238 240 242 242 240 239 238
214 214 214 215 217 217 215 217 221 222 222 223 221 220 221 223 224 224 225 226 226 227 227 226 225 225 223 221 221 221 222 223 224 225 223 222 222 225 228 228 227 226 224 223 223 222 223 225 227 229 230 231 232 232 232 235 235 234 235 236 236 237 239 240 239 240 240 241 242 242 244 244 242 241 239 238 238 239 238 238 237 237 239 241 243 244 243 242
213 213 212 214 217 217 215 215 218 220 221 223 223 221 221 223 225 225 226 226 226 227 227 226 225 224 222 221 221 221 223 224 225 225 224 223 222 221 225 228 228 228 228 226 224 222 223 226 230 230 229 230 231 231 231 233 234 234 235 235 236 236 237 238 238 238 240 242 242 243 245 245 244 242 240 239 239 239 239 239 238 238 238 240 244 246 246 246
211 211 210 212 215 215 214 213 217 221 221 223 224 222 221 222 223 223 223 223 223 224 225 226 226 225 223 221 221 221 222 224 225 225 224 224 223 221 222 227 229 229 230 230 228 226 226 230 232 230 229 230 230 231 231 231 232 233 234 234 235 235 235 237 238 237 239 242 244 244 245 245 244 243 240 240 241 239 240 241 239 239 239 240 242 244 246 247
210 210 209 209 212 214 212 212 217 222 222 224 223 221 220 221 222 222 222 222 222 222 222 223 224 224 223 221 221 221 221 223 224 224 224 223 224 223 223 225 227 229 230 231 232 230 230 231 230 229 231 231 231 231 231 231 231 232 234 235 236 237 236 236 238 237 238 241 243 245 246 245 244 244 241 241 242 238 237 240 240 240 241 241 240 241 244 246
207 208 207 207 210 211 211 211 216 221 222 221 219 218 218 219 220 221 222 223 222 221 221 220 221 222 222 221 221 222 222 222 223 224 224 223 224 224 223 223 225 227 229 232 234 233 231 229 227 227 230 230 231 232 232 232 233 234 235 236 238 239 239 238 238 238 238 239 242 245 247 246 243 244 242 239 241 239 236 237 239 240 241 240 240 241 243 244
205 205 205 206 208 209 208 209 214 219 219 219 218 217 218 218 219 219 221 223 222 221 220 220 220 220 221 221 221 223 223 222 223 224 224 224 223 224 223 222 224 225 226 230 234 234 232 230 228 227 228 229 230 232 233 233 234 236 237 237 238 240 241 241 240 240 239 239 240 243 247 248 244 241 242 241 242 241 239 237 236 238 240 240 240 240 241 242
203 202 201 204 207 207 206 208 211 215 216 219 219 219 219 218 218 219 220 222 222 221 221 220 220 220 220 221 221 222 223 222 222 223 224 224 224 225 224 223 224 226 225 227 232 233 232 230 230 228 229 230 231 232 233 234 235 237 238 237 237 239 241 242 242 242 241 239 239 240 244 249 246 239 240 243 243 243 241 239 238 238 240 240 239 237 237 238
202 200 198 200 205 206 206 207 210 213 214 217 220 219 218 217 217 218 219 222 222 220 220 220 220 219 219 220 221 222 223 222 223 223 223 225 225 225 226 225 226 227 227 227 230 233 233 231 231 231 232 233 233 235 235 233 234 236 238 238 237 239 241 242 243 244 243 241 239 238 242 248 247 241 239 241 243 244 243 242 241 241 241 241 240 238 237 237
201 199 195 196 203 206 206 208 211 213 214 216 218 216 216 216 216 217 219 222 222 220 220 219 219 218 218 219 220 222 222 222 222 222 222 224 225 225 225 225 226 226 225 227 229 232 234 232 232 231 232 234 235 236 235 234 234 235 237 238 238 239 240 242 245 245 246 244 239 237 241 247 249 245 241 240 240 243 245 244 242 243 243 242 243 242 241 240
200 198 192 192 202 206 204 206 210 211 212 215 216 214 214 216 215 215 217 218 219 220 220 219 218 218 218 219 220 221 222 222 222 221 221 223 225 226 224 223 224 224 224 223 223 228 232 232 231 231 231 232 233 235 236 235 235 235 236 237 237 238 239 241 245 246 248 247 241 237 240 246 250 247 241 238 239 240 243 244 242 243 245 245 246 246 244 243
198 196 189 191 203 206 204 204 206 208 208 213 216 214 214 215 215 217 218 217 217 220 220 219 219 219 218 219 221 222 223 224 222 221 222 222 223 225 224 223 223 223 223 219 217 222 228 229 229 231 232 232 233 234 234 234 234 234 234 235 236 237 238 240 242 244 246 246 242 239 240 243 246 246 242 238 237 238 241 243 243 244 246 247 246 246 246 246
196 192 186 192 202 204 203 203 205 207 208 211 215 216 216 216 215 217 216 215 217 220 219 219 220 220 220 220 221 222 224 225 224 223 224 223 223 225 225 224 224 225 224 221 218 221 226 228 229 229 231 231 232 233 233 233 234 234 233 232 233 235 236 237 239 241 244 245 243 241 240 240 242 245 245 242 238 237 239 241 242 242 244 246 245 245 246 247
193 188 185 193 201 201 199 201 204 207 209 211 212 214 216 218 219 218 215 213 218 221 219 220 221 220 222 222 222 222 223 225 225 224 225 224 224 225 224 224 224 225 227 226 224 224 225 226 226 226 227 229 230 232 233 234 235 236 235 234 234 234 235 236 238 240 241 243 243 242 241 240 240 243 246 245 241 239 239 240 241 241 242 245 246 246 247 247
189 187 187 193 199 198 196 199 203 205 210 212 211 213 216 218 220 220 217 215 218 221 219 220 221 221 221 221 222 223 223 224 224 223 224 225 225 224 224 224 223 224 226 226 225 226 226 226 226 227 228 229 231 232 234 237 238 239 240 240 239 238 239 240 240 241 243 244 244 244 243 243 241 241 245 247 245 244 243 242 242 241 241 242 245 246 245 244
186 185 187 192 195 195 194 199 204 205 210 213 214 216 218 219 219 220 221 219 219 221 221 220 221 222 223 222 221 223 224 225 225 223 223 224 225 225 225 226 225 224 225 225 225 227 229 229 230 232 232 233 233 234 235 237 237 237 237 239 240 240 242 243 244 244 246 247 247 246 247 247 244 243 246 249 249 248 247 247 245 243 241 240 240 241 241 241
186 185 187 191 194 193 194 199 204 208 212 215 217 219 220 221 223 223 224 223 223 225 224 222 221 222 223 223 222 222 223 224 224 225 225 225 225 225 225 227 227 225 226 227 227 228 230 231 231 233 234 235 236 235 235 237 238 237 236 236 239 242 243 243 244 244 244 245 245 246 247 247 246 244 244 247 250 248 247 247 247 247 244 242 239 238 238 239
186 184 185 191 193 192 194 200 205 209 214 217 219 222 222 222 223 224 225 224 223 223 222 222 223 223 223 223 224 224 225 225 224 225 225 226 226 224 224 225 226 227 228 229 230 229 231 233 232 232 235 237 238 236 236 236 236 239 239 237 239 243 243 243 245 245 244 244 245 247 248 247 246 244 242 245 249 251 250 248 248 249 248 246 244 240 238 237
183 183 185 190 192 191 194 202 207 211 215 216 217 218 220 221 221 222 223 223 223 222 222 222 223 225 225 225 226 227 228 228 227 228 227 227 227 226 225 226 226 227 228 229 230 230 230 231 231 232 234 236 237 237 237 237 236 239 241 239 239 241 242 243 244 245 247 248 248 249 250 250 248 247 246 247 249 253 255 253 251 251 251 250 249 246 244 241
180 183 188 189 189 191 195 203 209 213 216 216 215 215 217 218 220 221 221 220 221 221 222 223 223 224 224 225 226 227 229 230 231 231 231 231 231 229 227 228 227 227 226 227 229 230 229 230 231 231 232 233 234 236 238 238 238 241 242 240 239 240 241 243 246 248 250 252 251 250 251 251 250 249 251 252 251 253 257 257 255 254 253 253 253 251 248 245
179 183 189 188 187 191 197 205 211 216 217 216 215 216 217 218 219 220 220 219 219 220 222 223 224 225 225 225 224 225 228 230 231 232 232 233 233 231 229 228 227 227 226 227 228 229 228 228 229 230 230 230 232 235 237 239 240 241 242 242 242 242 242 243 246 247 247 249 250 250 249 249 249 249 251 252 251 253 255 257 257 256 254 254 254 255 253 249
179 183 189 186 187 192 199 205 211 215 216 214 214 215 217 219 221 222 221 219 218 219 220 222 224 225 225 225 225 225 226 227 229 230 231 231 232 232 231 230 230 229 228 228 228 228 228 228 228 228 229 229 230 233 236 238 240 241 242 243 244 246 246 246 246 246 246 247 248 251 251 250 250 251 252 252 252 253 255 257 259 260 258 255 255 256 257 255
178 183 189 187 187 194 201 206 209 212 214 213 214 215 216 219 221 223 223 220 219 218 218 219 222 223 223 223 224 225 226 227 228 229 230 231 232 233 232 231 231 230 230 230 229 228 229 230 229 227 228 228 229 232 235 236 238 239 240 240 241 243 244 245 246 248 250 251 251 253 254 253 253 255 256 256 257 257 259 259 260 261 261 259 257 255 256 256
177 182 188 188 190 197 204 208 209 210 212 212 212 213 215 217 220 223 223 221 220 219 219 220 220 222 223 223 222 223 225 226 228 229 229 230 230 229 228 226 226 228 229 230 229 228 228 228 229 228 228 228 228 228 230 233 237 238 237 236 237 239 240 243 246 248 249 250 249 250 251 251 253 255 256 258 258 258 259 258 258 258 259 259 259 256 254 254
179 183 185 188 194 201 206 210 210 211 211 211 211 212 214 216 220 224 224 222 221 220 220 221 221 222 224 224 222 222 223 223 226 228 228 228 227 226 225 223 223 224 226 228 229 230 230 230 230 229 228 227 226 226 225 227 231 235 236 235 236 238 239 242 244 246 247 248 246 247 249 248 251 254 255 257 258 257 257 257 257 257 257 258 259 259 256 254
182 185 184 189 197 202 205 207 210 213 214 215 214 214 216 218 220 223 223 222 222 221 221 221 221 221 222 223 222 222 221 222 224 226 225 226 227 226 225 224 222 223 224 226 227 228 229 230 229 229 229 228 228 228 227 226 227 231 234 234 236 239 239 240 243 245 247 247 246 248 251 251 253 254 254 255 257 257 257 257 258 259 259 258 258 259 258 256
185 188 188 192 198 202 204 206 208 211 214 216 216 215 216 218 221 222 222 221 220 220 221 221 221 221 221 222 222 221 220 221 223 224 223 224 226 226 226 225 223 223 223 224 226 226 227 228 228 229 231 231 231 232 231 228 227 229 232 234 237 240 241 242 245 247 249 250 250 252 254 254 253 254 255 255 256 256 257 257 257 258 259 259 257 256 257 257
186 191 193 196 198 200 204 207 207 208 210 211 212 214 216 218 221 223 223 222 221 221 221 221 221 222 222 223 223 223 222 222 224 225 224 225 226 227 226 225 225 224 224 225 227 227 228 228 227 228 230 230 231 231 230 227 226 228 230 234 237 239 241 242 245 248 250 250 250 252 253 252 250 250 251 252 254 256 257 258 257 257 257 258 258 257 256 257
190 193 196 201 203 203 205 209 209 209 209 209 209 213 217 220 222 225 224 224 224 224 224 224 223 223 222 223 224 224 224 224 225 225 225 227 228 229 228 226 227 228 228 228 229 230 230 230 228 228 229 228 228 229 230 228 227 227 228 231 234 236 238 240 243 245 246 247 249 250 250 249 247 246 247 250 254 256 258 258 258 258 257 256 257 258 258 257
195 197 199 204 207 207 207 210 212 212 210 211 211 212 215 219 222 225 226 226 226 226 226 227 227 226 224 223 223 224 224 224 226 226 225 227 228 228 228 229 230 231 232 234 234 234 235 234 231 230 230 227 226 228 230 229 228 227 227 228 231 233 236 238 238 239 240 242 246 249 249 247 244 243 246 249 252 253 254 256 256 257 257 256 256 258 258 257
194 200 203 204 206 207 209 212 215 214 213 214 215 214 214 217 220 223 226 227 228 228 228 229 227 225 224 223 223 223 223 224 226 226 224 226 227 226 229 232 232 232 233 235 237 237 238 237 235 234 233 229 226 227 229 230 230 229 227 228 229 231 233 234 234 234 234 236 239 244 247 246 242 241 244 245 248 251 251 252 254 255 256 256 256 256 257 256
195 200 203 206 208 208 210 214 217 216 216 217 219 220 221 222 225 228 229 229 229 229 229 229 227 224 224 224 223 223 222 222 225 225 223 225 228 229 231 230 229 230 231 233 236 237 238 239 237 236 236 231 228 229 230 231 233 232 229 228 229 229 230 233 235 234 233 232 231 234 240 244 243 242 243 243 246 250 251 251 252 254 255 255 255 256 256 255
202 205 206 208 211 211 210 212 214 216 217 218 221 224 225 226 228 229 229 228 229 228 226 225 224 223 223 224 223 222 222 223 225 225 224 226 227 229 230 227 223 226 230 233 235 236 237 239 238 238 239 234 230 231 233 235 238 237 232 228 228 229 229 232 233 233 232 231 229 228 232 236 239 241 242 241 244 247 248 249 251 252 253 254 254 256 256 256
Height
5666 5670 5675 5680 5685 5689 5694 5698 5702 5706 5710 5715 5719 5723 5727 5731 5735 5739 5744 5748 5752 5757 5761 5765 5769 5774 5778 5782 5786 5789 5793 5797 5801 5805 5813 5819 5821 5824 5825 5826 5829 5832 5833 5836 5840 5843 5846 5849 5851 5853 5855 5857 5858 5861 5863 5865 5867 5869 5871 5873 5875 5877 5878 5879 5880 5881 5883 5884 5886 5887 5888 5889 5890 5891 5892 5893 5894 5895 5896 5897 5898 5898 5899 5899 5900 5901 5901 5902
5657 5662 5667 5672 5677 5682 5686 5690 5695 5699 5704 5708 5713 5717 5721 5726 5730 5733 5738 5742 5746 5751 5755 5760 5764 5768 5772 5776 5781 5784 5787 5792 5795 5801 5810 5815 5816 5819 5821 5823 5826 5829 5830 5833 5837 5840 5842 5845 5848 5850 5852 5854 5856 5858 5860 5862 5864 5866 5869 5871 5873 5874 5874 5875 5877 5879 5881 5882 5884 5885 5886 5888 5889 5890 5891 5892 5893 5894 5895 5896 5896 5897 5898 5899 5899 5900 5900 5901
5649 5654 5659 5664 5669 5674 5679 5683 5687 5692 5697 5701 5706 5711 5715 5720 5724 5728 5732 5736 5741 5745 5749 5754 5758 5762 5766 5771 5775 5778 5782 5786 5790 5799 5807 5810 5812 5816 5818 5820 5823 5826 5828 5830 5833 5836 5838 5841 5844 5846 5848 5850 5853 5855 5857 5860 5862 5864 5867 5869 5871 5871 5871 5872 5875 5877 5879 5880 5881 5883 5884 5885 5887 5888 5889 5890 5891 5892 5893 5894 5895 5896 5897 5898 5898 5899 5900 5900
5640 5644 5650 5656 5661 5666 5671 5676 5680 5685 5690 5695 5700 5704 5709 5714 5718 5722 5726 5730 5735 5739 5743 5748 5752 5756 5761 5765 5769 5773 5777 5780 5786 5798 5802 5804 5808 5811 5814 5817 5820 5823 5825 5826 5829 5831 5834 5838 5840 5842 5844 5847 5850 5851 5854 5857 5859 5862 5864 5867 5869 5869 5869 5870 5872 5874 5876 5878 5879 5881 5882 5883 5885 5886 5887 5889 5890 5890 5891 5893 5894 5895 5896 5897 5897 5898 5899 5900
5631 5635 5641 5647 5653 5658 5664 5668 5673 5678 5683 5688 5693 5698 5703 5707 5712 5716 5720 5724 5728 5733 5737 5741 5745 5750 5755 5759 5762 5767 5771 5774 5783 5794 5796 5798 5803 5806 5810 5813 5815 5819 5821 5822 5824 5828 5830 5833 5836 5838 5840 5843 5847 5848 5851 5854 5856 5859 5862 5865 5866 5866 5867 5867 5869 5871 5873 5875 5877 5878 5880 5881 5883 5884 5885 5887 5888 5888 5890 5892 5892 5893 5894 5895 5896 5897 5898 5899
5623 5628 5633 5638 5645 5650 5656 5661 5666 5671 5676 5681 5686 5691 5696 5701 5706 5710 5714 5718 5722 5727 5731 5735 5739 5743 5748 5752 5756 5760 5763 5769 5778 5787 5790 5793 5798 5802 5805 5809 5811 5814 5817 5818 5820 5824 5826 5829 5832 5835 5838 5840 5843 5846 5848 5851 5853 5856 5859 5861 5863 5864 5864 5865 5866 5868 5870 5872 5874 5876 5878 5879 5881 5882 5883 5885 5885 5886 5889 5890 5890 5891 5893 5893 5894 5895 5896 5897
5617 5621 5625 5630 5636 5642 5647 5653 5659 5664 5669 5674 5679 5684 5689 5695 5700 5704 5709 5713 5716 5720 5724 5729 5733 5737 5742 5746 5750 5753 5757 5764 5773 5781 5785 5787 5792 5796 5799 5803 5807 5809 5812 5814 5816 5819 5823 5826 5829 5832 5835 5837 5840 5843 5846 5848 5849 5852 5855 5858 5860 5861 5861 5862 5863 5864 5867 5869 5871 5873 5875 5877 5878 5880 5881 5883 5882 5884 5887 5888 5888 5890 5891 5891 5892 5893 5894 5896
5611 5615 5618 5622 5627 5634 5640 5646 5652 5657 5662 5667 5672 5677 5682 5688 5693 5698 5702 5706 5710 5714 5718 5722 5726 5731 5735 5739 5744 5747 5752 5760 5767 5775 5780 5782 5787 5790 5792 5798 5803 5805 5808 5810 5813 5816 5820 5823 5826 5829 5831 5834 5838 5840 5842 5844 5845 5848 5852 5855 5856 5857 5858 5858 5860 5861 5863 5866 5868 5870 5872 5874 5876 5878 5880 5881 5880 5882 5885 5885 5887 5888 5889 5889 5890 5891 5892 5893
5604 5608 5611 5615 5620 5627 5633 5639 5644 5650 5655 5660 5665 5670 5675 5680 5686 5691 5696 5700 5705 5708 5712 5716 5719 5724 5728 5733 5737 5740 5748 5756 5761 5768 5774 5777 5780 5784 5789 5794 5798 5801 5804 5807 5810 5812 5815 5819 5822 5826 5827 5831 5835 5836 5838 5839 5840 5844 5849 5851 5852 5853 5854 5855 5856 5858 5860 5862 5864 5867 5869 5871 5873 5875 5878 5878 5877 5879 5882 5883 5884 5885 5886 5887 5887 5889 5890 5891
5597 5601 5605 5609 5614 5621 5627 5632 5637 5643 5648 5653 5658 5663 5668 5673 5678 5684 5689 5694 5698 5702 5706 5709 5713 5718 5722 5726 5729 5735 5746 5752 5755 5762 5769 5772 5775 5779 5784 5787 5791 5796 5800 5802 5805 5808 5812 5816 5819 5822 5824 5826 5829 5830 5832 5833 5836 5842 5845 5845 5847 5848 5849 5851 5853 5854 5856 5858 5860 5863 5865 5867 5870 5873 5876 5876 5875 5876 5879 5880 5881 5882 5883 5884 5885 5886 5887 5888
5591 5595 5599 5604 5608 5614 5620 5625 5631 5636 5641 5647 5652 5656 5661 5666 5671 5677 5682 5686 5691 5696 5699 5703 5708 5711 5715 5719 5723 5733 5743 5746 5751 5755 5761 5766 5769 5773 5776 5780 5785 5790 5794 5797 5799 5803 5807 5811 5814 5816 5817 5820 5823 5825 5827 5830 5833 5837 5839 5839 5842 5844 5845 5847 5849 5851 5853 5855 5857 5860 5861 5864 5867 5871 5874 5873 5872 5873 5875 5877 5878 5879 5880 5881 5883 5884 5885 5886
5583 5588 5594 5598 5602 5608 5613 5618 5624 5629 5634 5640 5645 5650 5655 5659 5664 5669 5674 5679 5684 5688 5693 5697 5701 5705 5708 5711 5719 5732 5737 5740 5745 5747 5752 5761 5763 5767 5772 5775 5780 5786 5790 5793 5795 5798 5801 5805 5808 5810 5811 5814 5819 5821 5823 5826 5829 5832 5833 5834 5837 5839 5840 5844 5846 5848 5850 5851 5854 5856 5856 5860 5864 5869 5872 5869 5869 5871 5872 5874 5875 5877 5877 5878 5880 5881 5883 5883
5576 5581 5587 5592 5597 5602 5606 5612 5618 5623 5628 5633 5638 5643 5648 5653 5657 5662 5667 5672 5676 5681 5686 5690 5694 5698 5700 5706 5719 5727 5730 5734 5737 5739 5747 5754 5757 5762 5767 5771 5776 5781 5785 5788 5791 5793 5795 5799 5802 5804 5805 5809 5813 5815 5818 5822 5825 5827 5829 5830 5833 5834 5835 5840 5843 5845 5847 5848 5852 5851 5851 5857 5862 5866 5868 5865 5866 5868 5870 5872 5873 5874 5875 5876 5877 5879 5880 5881
5568 5575 5581 5585 5591 5596 5601 5605 5610 5616 5622 5626 5631 5636 5641 5646 5650 5655 5660 5665 5669 5674 5678 5683 5688 5691 5695 5706 5716 5719 5724 5728 5728 5733 5741 5747 5752 5756 5761 5766 5770 5775 5780 5784 5787 5788 5790 5793 5796 5798 5800 5803 5808 5811 5813 5817 5820 5823 5824 5825 5828 5829 5831 5837 5840 5842 5844 5845 5849 5847 5846 5854 5859 5862 5864 5863 5864 5865 5867 5869 5870 5871 5872 5873 5874 5875 5877 5878
5561 5568 5574 5579 5584 5590 5595 5599 5604 5609 5615 5619 5624 5629 5634 5639 5643 5649 5653 5657 5662 5666 5672 5677 5681 5684 5692 5703 5709 5712 5719 5721 5722 5730 5737 5741 5747 5751 5756 5761 5764 5768 5773 5777 5781 5783 5785 5788 5790 5793 5796 5799 5803 5806 5808 5812 5816 5818 5819 5821 5823 5825 5828 5835 5837 5838 5840 5842 5844 5842 5842 5850 5857 5859 5859 5859 5861 5862 5864 5865 5866 5867 5868 5869 5871 5872 5874 5874
5554 5560 5567 5573 5579 5585 5590 5594 5598 5603 5608 5613 5617 5621 5627 5631 5636 5641 5645 5650 5655 5660 5665 5669 5674 5680 5687 5696 5702 5707 5713 5716 5719 5726 5731 5736 5742 5745 5750 5754 5757 5762 5766 5771 5775 5778 5780 5782 5784 5788 5792 5796 5799 5802 5804 5807 5810 5813 5815 5817 5820 5823 5826 5831 5832 5834 5836 5837 5838 5838 5840 5846 5853 5855 5854 5856 5858 5858 5860 5862 5862 5863 5864 5865 5867 5869 5871 5871
5547 5553 5559 5566 5573 5579 5585 5589 5592 5597 5602 5607 5611 5615 5620 5624 5629 5633 5637 5642 5648 5654 5658 5663 5669 5673 5680 5690 5698 5704 5710 5714 5716 5721 5727 5731 5736 5740 5744 5748 5753 5755 5759 5764 5767 5771 5774 5775 5778 5782 5785 5790 5794 5797 5798 5800 5805 5809 5812 5814 5817 5822 5825 5825 5828 5831 5832 5833 5835 5835 5837 5841 5847 5851 5851 5851 5854 5854 5856 5858 5858 5859 5861 5862 5864 5866 5868 5869
5540 5547 5553 5560 5567 5573 5580 5585 5588 5591 5596 5601 5605 5607 5611 5616 5621 5625 5631 5636 5641 5646 5649 5655 5661 5665 5676 5690 5697 5702 5708 5711 5711 5716 5722 5725 5730 5735 5739 5744 5747 5748 5752 5755 5759 5764 5766 5769 5773 5775 5777 5782 5787 5791 5793 5796 5803 5808 5811 5814 5817 5821 5821 5820 5825 5829 5830 5831 5832 5832 5833 5836 5841 5846 5847 5847 5848 5849 5852 5854 5855 5856 5857 5860 5861 5863 5865 5866
5533 5540 5548 5555 5562 5567 5574 5580 5583 5586 5591 5594 5597 5599 5603 5608 5613 5618 5623 5628 5634 5639 5646 5654 5660 5668 5681 5692 5696 5700 5704 5705 5705 5708 5714 5720 5724 5728 5733 5737 5739 5741 5743 5747 5753 5757 5760 5763 5765 5767 5771 5777 5784 5790 5793 5797 5804 5809 5811 5813 5814 5814 5814 5817 5822 5826 5828 5828 5827 5828 5829 5832 5835 5839 5843 5844 5843 5845 5848 5851 5852 5853 5855 5856 5858 5860 5862 5863
5526 5534 5542 5550 5556 5562 5568 5574 5578 5582 5584 5585 5588 5592 5596 5600 5605 5611 5618 5626 5635 5641 5649 5656 5662 5669 5679 5686 5691 5694 5696 5696 5696 5700 5707 5713 5716 5721 5725 5729 5732 5734 5735 5741 5747 5750 5754 5755 5757 5764 5772 5779 5785 5791 5794 5795 5802 5806 5806 5807 5806 5806 5809 5814 5818 5821 5825 5824 5822 5823 5824 5826 5829 5833 5838 5840 5839 5841 5845 5848 5849 5851 5852 5853 5854 5856 5858 5860
5519 5528 5536 5544 5550 5556 5563 5569 5574 5576 5576 5577 5582 5587 5593 5600 5607 5615 5623 5630 5635 5639 5644 5649 5654 5660 5669 5678 5683 5686 5688 5688 5690 5694 5701 5706 5711 5715 5717 5721 5725 5726 5731 5737 5739 5742 5745 5746 5754 5766 5774 5778 5783 5788 5790 5792 5797 5800 5800 5799 5799 5803 5806 5810 5814 5817 5819 5818 5817 5818 5818 5820 5824 5829 5834 5836 5836 5838 5842 5844 5846 5848 5849 5850 5851 5853 5856 5858
5512 5521 5531 5539 5544 5551 5558 5564 5569 5570 5569 5571 5576 5585 5596 5602 5607 5616 5622 5625 5629 5633 5637 5641 5646 5653 5664 5671 5675 5679 5681 5683 5685 5689 5697 5702 5704 5709 5712 5715 5718 5722 5729 5730 5730 5733 5734 5741 5757 5766 5770 5774 5778 5781 5784 5787 5790 5792 5791 5791 5793 5798 5801 5805 5809 5812 5813 5812 5812 5814 5813 5815 5819 5824 5829 5831 5833 5837 5840 5841 5842 5844 5845 5847 5849 5851 5853 5855
5505 5515 5524 5532 5539 5546 5552 5559 5565 5563 5562 5567 5576 5587 5595 5598 5602 5608 5611 5615 5620 5624 5628 5635 5642 5650 5657 5663 5668 5671 5674 5677 5679 5684 5692 5696 5699 5705 5708 5710 5713 5719 5722 5722 5725 5728 5731 5746 5759 5760 5763 5769 5771 5774 5777 5779 5781 5782 5782 5783 5787 5792 5796 5801 5803 5806 5808 5807 5807 5810 5808 5808 5814 5819 5824 5828 5830 5836 5837 5837 5839 5840 5842 5845 5847 5848 5850 5851
5498 5508 5517 5525 5533 5540 5547 5556 5558 5555 5558 5567 5577 5584 5588 5591 5595 5601 5604 5607 5611 5615 5622 5629 5635 5642 5649 5656 5661 5662 5665 5670 5673 5679 5686 5689 5695 5700 5703 5706 5710 5714 5715 5717 5723 5725 5734 5748 5752 5754 5760 5763 5764 5767 5769 5770 5773 5775 5775 5780 5784 5788 5793 5797 5798 5800 5803 5801 5802 5804 5801 5802 5809 5814 5821 5825 5826 5830 5833 5833 5835 5837 5839 5842 5843 5845 5847 5848
5490 5500 5511 5520 5528 5536 5544 5550 5550 5550 5556 5564 5571 5576 5580 5584 5589 5595 5598 5600 5603 5608 5614 5619 5625 5633 5643 5650 5652 5654 5659 5663 5668 5675 5680 5686 5691 5693 5697 5702 5704 5708 5711 5715 5718 5722 5732 5740 5743 5750 5754 5753 5756 5758 5761 5765 5769 5771 5773 5779 5783 5785 5789 5792 5793 5795 5796 5796 5798 5798 5794 5796 5805 5810 5816 5821 5821 5824 5829 5830 5832 5834 5835 5838 5840 5842 5844 5845
5483 5494 5506 5516 5524 5533 5539 5542 5543 5546 5553 5560 5567 5572 5575 5580 5585 5589 5591 5592 5595 5600 5606 5613 5620 5629 5637 5642 5645 5650 5653 5658 5665 5671 5675 5681 5684 5686 5691 5695 5698 5703 5708 5713 5714 5717 5725 5732 5739 5744 5744 5745 5749 5750 5754 5761 5765 5767 5771 5776 5779 5781 5784 5786 5787 5788 5789 5792 5792 5792 5789 5788 5797 5806 5811 5817 5818 5820 5824 5826 5829 5831 5831 5834 5837 5839 5840 5840
5478 5488 5500 5511 5520 5526 5528 5533 5537 5542 5550 5558 5564 5568 5571 5575 5578 5581 5584 5583 5586 5595 5603 5609 5616 5625 5632 5636 5641 5644 5645 5653 5661 5664 5669 5676 5678 5681 5685 5689 5694 5699 5705 5708 5706 5709 5720 5728 5733 5737 5738 5739 5740 5743 5751 5757 5761 5763 5766 5769 5774 5777 5777 5778 5780 5780 5782 5785 5784 5786 5787 5782 5786 5801 5809 5812 5814 5815 5819 5823 5825 5827 5829 5831 5833 5834 5835 5836
5473 5483 5494 5506 5516 5520 5523 5529 5535 5541 5550 5557 5560 5562 5565 5569 5571 5575 5576 5574 5580 5591 5598 5603 5612 5621 5627 5630 5633 5636 5641 5652 5656 5658 5665 5670 5672 5676 5680 5686 5691 5696 5700 5700 5701 5709 5718 5722 5728 5734 5734 5732 5736 5742 5747 5751 5756 5758 5758 5763 5770 5771 5770 5772 5773 5773 5776 5776 5775 5782 5786 5778 5778 5794 5806 5808 5809 5811 5814 5819 5822 5823 5825 5827 5828 5830 5831 5832
5469 5478 5490 5503 5512 5515 5520 5528 5535 5542 5549 5552 5552 5555 5559 5562 5564 5567 5567 5568 5578 5588 5592 5599 5607 5613 5618 5623 5627 5632 5639 5645 5647 5654 5662 5663 5665 5669 5675 5683 5687 5689 5692 5693 5701 5709 5712 5717 5723 5725 5725 5727 5735 5739 5739 5745 5750 5751 5752 5758 5764 5763 5765 5767 5764 5766 5769 5764 5768 5782 5786 5778 5772 5784 5799 5803 5805 5808 5809 5813 5817 5819 5821 5823 5824 5827 5828 5828
5465 5474 5487 5500 5505 5506 5513 5523 5531 5537 5544 5547 5546 5550 5553 5554 5556 5556 5555 5563 5576 5582 5586 5595 5601 5607 5615 5619 5623 5629 5634 5637 5643 5651 5654 5655 5659 5664 5671 5678 5680 5682 5684 5688 5697 5702 5705 5711 5713 5714 5718 5723 5729 5730 5734 5740 5742 5743 5746 5751 5754 5755 5759 5759 5757 5761 5758 5753 5767 5783 5785 5779 5768 5771 5789 5797 5800 5805 5804 5806 5812 5815 5817 5819 5821 5823 5824 5824
5461 5471 5483 5492 5495 5498 5508 5517 5523 5532 5540 5540 5540 5544 5545 5546 5548 5547 5550 5565 5577 5577 5581 5590 5596 5603 5611 5614 5619 5625 5628 5632 5640 5644 5645 5650 5655 5657 5664 5670 5672 5676 5678 5682 5690 5696 5699 5701 5703 5709 5715 5718 5721 5724 5728 5730 5730 5733 5738 5742 5746 5748 5751 5751 5751 5752 5747 5749 5768 5779 5780 5775 5762 5760 5777 5789 5795 5799 5799 5802 5808 5812 5813 5815 5818 5819 5820 5820
5456 5467 5478 5486 5490 5498 5508 5517 5523 5531 5533 5532 5534 5537 5537 5539 5538 5539 5553 5570 5571 5570 5578 5587 5593 5601 5608 5612 5617 5622 5625 5628 5635 5639 5642 5648 5649 5650 5658 5663 5667 5670 5671 5677 5685 5690 5692 5695 5701 5706 5707 5710 5714 5716 5718 5720 5721 5724 5728 5733 5736 5738 5740 5740 5741 5741 5740 5750 5763 5768 5769 5763 5756 5759 5768 5780 5790 5793 5795 5798 5803 5808 5810 5811 5814 5815 5816 5816
5454 5464 5473 5479 5487 5496 5506 5515 5521 5525 5525 5526 5529 5530 5531 5531 5531 5540 5558 5566 5563 5567 5579 5586 5592 5600 5604 5607 5611 5616 5619 5622 5629 5635 5638 5642 5643 5646 5653 5657 5661 5664 5667 5675 5681 5682 5686 5690 5694 5695 5697 5702 5705 5707 5711 5714 5718 5719 5722 5728 5728 5730 5730 5729 5732 5731 5733 5744 5751 5754 5755 5749 5754 5762 5761 5769 5781 5785 5788 5793 5797 5803 5807 5808 5809 5811 5812 5812
5452 5460 5467 5474 5483 5494 5503 5509 5515 5518 5519 5520 5523 5523 5523 5525 5533 5547 5557 5560 5562 5568 5577 5583 5589 5594 5596 5600 5607 5611 5613 5615 5623 5629 5631 5634 5635 5639 5646 5649 5654 5660 5665 5672 5675 5676 5680 5683 5685 5688 5692 5696 5699 5704 5710 5714 5717 5717 5722 5726 5723 5724 5725 5725 5728 5725 5728 5739 5742 5743 5742 5741 5753 5761 5757 5762 5771 5776 5781 5787 5794 5799 5802 5804 5805 5806 5807 5807
5448 5454 5462 5470 5477 5487 5498 5504 5510 5513 5513 5515 5517 5516 5517 5525 5538 5548 5553 5558 5562 5566 5575 5582 5585 5588 5590 5596 5601 5604 5607 5611 5618 5622 5623 5625 5629 5636 5642 5645 5650 5656 5659 5663 5668 5672 5674 5677 5685 5690 5690 5692 5696 5703 5708 5708 5708 5711 5716 5715 5713 5720 5725 5723 5723 5723 5730 5736 5732 5733 5735 5739 5753 5759 5756 5756 5760 5769 5776 5780 5787 5791 5795 5799 5800 5801 5801 5801
5443 5450 5459 5465 5472 5483 5493 5499 5504 5507 5508 5510 5511 5511 5519 5532 5542 5547 5552 5558 5561 5566 5574 5576 5578 5581 5586 5591 5594 5596 5600 5605 5612 5615 5616 5621 5625 5631 5637 5641 5646 5651 5653 5658 5664 5668 5669 5674 5684 5687 5684 5687 5694 5700 5700 5699 5703 5706 5706 5706 5713 5722 5720 5714 5714 5718 5724 5721 5717 5723 5728 5737 5748 5748 5749 5750 5749 5759 5768 5772 5777 5780 5785 5790 5793 5795 5796 5797
5440 5448 5456 5462 5471 5482 5491 5496 5499 5502 5504 5505 5507 5514 5526 5535 5540 5545 5551 5555 5558 5563 5566 5568 5572 5576 5580 5585 5589 5593 5596 5600 5605 5607 5611 5616 5619 5625 5632 5636 5642 5647 5652 5657 5660 5662 5665 5671 5679 5680 5680 5685 5692 5693 5691 5694 5700 5698 5696 5707 5717 5714 5707 5707 5709 5710 5710 5708 5710 5718 5723 5732 5737 5736 5742 5747 5746 5750 5757 5764 5769 5771 5776 5781 5784 5789 5790 5792
5440 5448 5454 5461 5471 5482 5490 5494 5495 5497 5499 5500 5507 5518 5526 5531 5537 5543 5547 5550 5555 5558 5559 5564 5569 5573 5578 5582 5587 5591 5593 5596 5600 5603 5607 5610 5613 5621 5629 5633 5638 5644 5650 5654 5653 5656 5662 5665 5670 5673 5676 5681 5684 5684 5683 5687 5692 5689 5693 5705 5705 5698 5699 5703 5701 5700 5702 5704 5709 5716 5720 5722 5726 5731 5738 5742 5745 5747 5747 5753 5761 5764 5767 5771 5775 5780 5783 5785
5440 5447 5452 5460 5471 5480 5485 5489 5491 5491 5492 5497 5506 5517 5523 5529 5535 5540 5543 5546 5550 5553 5555 5560 5565 5570 5574 5579 5584 5587 5588 5592 5597 5600 5604 5606 5610 5621 5627 5630 5635 5640 5644 5646 5646 5651 5658 5659 5662 5667 5671 5674 5675 5674 5674 5679 5684 5685 5689 5693 5691 5692 5697 5696 5694 5697 5701 5700 5704 5711 5711 5711 5719 5730 5732 5734 5742 5744 5740 5744 5750 5755 5759 5761 5765 5770 5772 5775
5438 5444 5450 5458 5468 5477 5482 5485 5485 5484 5488 5499 5510 5517 5522 5527 5531 5535 5538 5541 5545 5549 5553 5557 5562 5566 5570 5575 5580 5582 5584 5589 5593 5595 5599 5602 5608 5617 5621 5625 5630 5634 5638 5639 5640 5646 5650 5650 5653 5659 5663 5664 5665 5665 5669 5675 5678 5679 5681 5683 5685 5689 5692 5691 5689 5692 5694 5694 5697 5699 5699 5704 5715 5721 5721 5726 5734 5734 5732 5735 5739 5745 5750 5753 5755 5756 5758 5764
5437 5443 5449 5457 5466 5472 5476 5478 5477 5479 5490 5502 5509 5514 5519 5523 5527 5531 5535 5537 5541 5545 5550 5554 5558 5562 5567 5571 5574 5577 5580 5584 5586 5589 5592 5597 5603 5609 5616 5623 5627 5630 5632 5631 5634 5639 5641 5643 5648 5652 5653 5655 5658 5662 5666 5670 5671 5673 5675 5678 5682 5686 5688 5686 5682 5683 5688 5689 5692 5694 5694 5701 5709 5709 5712 5720 5724 5724 5726 5729 5731 5735 5739 5743 5746 5747 5748 5753
5436 5443 5449 5455 5462 5467 5471 5472 5473 5480 5491 5499 5504 5511 5517 5520 5524 5528 5531 5535 5538 5542 5546 5550 5553 5557 5561 5565 5569 5573 5576 5579 5581 5584 5587 5593 5600 5606 5613 5619 5621 5623 5624 5624 5629 5634 5636 5637 5640 5642 5644 5648 5654 5658 5661 5662 5664 5668 5669 5671 5677 5678 5678 5678 5677 5681 5686 5686 5691 5693 5689 5695 5702 5703 5709 5714 5717 5719 5721 5724 5726 5726 5727 5731 5736 5740 5742 5744
5436 5443 5452 5458 5462 5466 5468 5469 5472 5480 5489 5497 5503 5509 5513 5517 5520 5524 5528 5532 5535 5538 5542 5545 5549 5553 5556 5561 5565 5568 5571 5575 5577 5580 5584 5590 5595 5600 5605 5608 5610 5614 5615 5617 5622 5626 5627 5628 5630 5635 5640 5643 5646 5650 5653 5655 5658 5660 5661 5665 5669 5669 5671 5674 5676 5680 5679 5677 5686 5685 5680 5689 5697 5699 5705 5708 5709 5713 5714 5717 5718 5716 5718 5720 5722 5728 5734 5736
5436 5443 5451 5457 5461 5464 5465 5467 5473 5482 5490 5497 5501 5505 5510 5514 5518 5522 5526 5529 5532 5535 5538 5542 5546 5550 5553 5557 5561 5564 5567 5571 5572 5576 5581 5585 5588 5592 5595 5599 5602 5604 5607 5611 5616 5619 5620 5621 5625 5629 5631 5632 5634 5636 5639 5645 5650 5653 5655 5659 5661 5663 5668 5670 5670 5673 5668 5668 5677 5675 5674 5689 5695 5694 5701 5701 5701 5705 5705 5707 5709 5708 5711 5712 5712 5717 5723 5727
5437 5442 5448 5453 5457 5460 5462 5469 5478 5486 5491 5495 5499 5504 5508 5512 5515 5519 5523 5526 5529 5532 5535 5539 5542 5546 5549 5552 5556 5559 5562 5565 5568 5572 5576 5579 5582 5586 5589 5592 5595 5598 5602 5605 5608 5610 5611 5612 5616 5618 5618 5621 5625 5628 5634 5642 5647 5647 5649 5652 5655 5659 5663 5663 5664 5664 5659 5663 5670 5667 5673 5689 5692 5690 5697 5696 5694 5697 5697 5699 5702 5701 5703 5706 5707 5709 5711 5716
5437 5440 5444 5448 5452 5456 5462 5469 5476 5482 5487 5492 5497 5502 5506 5509 5512 5516 5518 5521 5525 5529 5532 5535 5538 5542 5545 5547 5551 5554 5557 5561 5564 5567 5571 5575 5577 5580 5583 5587 5590 5592 5595 5596 5598 5600 5601 5602 5607 5609 5611 5618 5626 5631 5636 5640 5640 5639 5643 5647 5650 5652 5655 5658 5656 5654 5655 5660 5661 5661 5671 5684 5686 5687 5691 5689 5687 5689 5689 5692 5696 5696 5696 5698 5700 5702 5703 5705
5437 5440 5443 5445 5447 5453 5460 5465 5472 5479 5485 5490 5494 5499 5503 5506 5509 5512 5515 5518 5522 5525 5527 5530 5534 5537 5540 5544 5547 5550 5553 5557 5559 5562 5568 5571 5573 5576 5579 5582 5585 5586 5588 5590 5591 5593 5593 5595 5599 5603 5607 5615 5625 5627 5626 5627 5629 5633 5639 5641 5642 5644 5647 5649 5647 5647 5652 5653 5652 5657 5666 5673 5679 5684 5684 5682 5682 5682 5682 5685 5688 5689 5689 5689 5690 5693 5696 5697
5436 5442 5446 5448 5452 5457 5462 5468 5474 5480 5484 5487 5492 5497 5500 5503 5507 5510 5513 5516 5519 5522 5524 5527 5530 5533 5537 5541 5544 5546 5549 5551 5554 5559 5563 5566 5569 5572 5574 5577 5579 5581 5584 5585 5586 5587 5587 5590 5595 5599 5602 5610 5618 5616 5614 5618 5621 5625 5630 5633 5634 5637 5639 5640 5641 5643 5647 5646 5645 5652 5657 5663 5674 5678 5676 5677 5677 5674 5675 5677 5679 5680 5680 5681 5682 5684 5688 5692
5437 5442 5446 5451 5457 5462 5467 5471 5475 5478 5482 5485 5489 5493 5497 5501 5505 5507 5511 5513 5516 5519 5521 5524 5528 5531 5534 5537 5539 5541 5544 5547 5551 5556 5560 5563 5565 5568 5570 5572 5575 5577 5579 5580 5582 5584 5584 5587 5592 5594 5596 5603 5608 5606 5606 5611 5613 5615 5620 5624 5626 5628 5631 5633 5634 5636 5638 5639 5640 5645 5647 5655 5667 5670 5671 5673 5669 5665 5668 5669 5670 5671 5670 5672 5676 5677 5679 5682
5438 5443 5447 5451 5456 5461 5465 5468 5471 5475 5480 5483 5487 5492 5495 5499 5502 5505 5508 5511 5513 5516 5519 5522 5526 5528 5530 5532 5534 5537 5541 5545 5549 5553 5556 5558 5561 5564 5566 5569 5572 5574 5574 5574 5577 5579 5580 5583 5587 5589 5590 5595 5599 5599 5600 5602 5603 5606 5611 5614 5617 5620 5622 5624 5627 5630 5631 5631 5635 5638 5637 5645 5660 5665 5665 5665 5661 5659 5661 5662 5661 5662 5662 5664 5667 5669 5669 5670
5439 5443 5447 5451 5454 5458 5461 5465 5469 5472 5476 5480 5485 5489 5493 5496 5500 5502 5505 5508 5510 5513 5516 5520 5522 5524 5526 5527 5530 5535 5540 5544 5546 5549 5551 5553 5556 5560 5561 5562 5565 5566 5567 5569 5572 5574 5575 5578 5582 5582 5582 5586 5593 5594 5594 5595 5595 5595 5598 5603 5608 5612 5616 5621 5624 5625 5625 5625 5629 5629 5627 5637 5653 5657 5654 5657 5658 5654 5655 5655 5653 5652 5654 5657 5658 5658 5658 5658
5437 5440 5444 5448 5450 5454 5458 5461 5464 5469 5474 5479 5484 5487 5490 5493 5496 5498 5501 5505 5507 5509 5512 5514 5516 5519 5521 5523 5529 5535 5538 5540 5542 5544 5546 5548 5551 5553 5553 5555 5559 5560 5562 5564 5565 5568 5570 5572 5575 5576 5576 5582 5588 5588 5587 5588 5583 5578 5585 5597 5604 5609 5615 5618 5618 5618 5620 5620 5619 5619 5622 5632 5642 5643 5646 5653 5653 5648 5647 5646 5644 5645 5647 5649 5649 5648 5647 5647